EW9741 Weather Reports


Display with metric or nautical units.
time (UTC)temp
F
wind
direction
speed
MPH
gust
MPH
rain 1hr
in
rain 24hr
in
rain mn
in
humidity
%
barometer
mb
20260502210031 52 352 0.0 1.0 0.00 0.00 0.00 41 1015.3
20260502204528 52 326 2.0 14.0 0.00 0.00 0.00 39 1015.3
20260502203028 52 82 0.0 9.0 0.00 0.00 0.00 40 1015.3
20260502201531 51 302 0.0 9.0 0.00 0.00 0.00 40 1015.5
20260502200028 51 339 0.0 11.0 0.00 0.00 0.00 40 1015.6
20260502194524 51 354 1.0 14.0 0.00 0.00 0.00 40 1015.6
20260502193024 51 340 0.0 1.0 0.00 0.00 0.00 40 1015.7
20260502191523 51 30 0.0 5.0 0.00 0.00 0.00 40 1015.8
20260502190027 51 297 0.0 10.0 0.00 0.00 0.00 41 1015.9
20260502184520 52 302 0.0 12.0 0.00 0.00 0.00 43 1016.0
20260502183020 52 278 1.0 15.0 0.00 0.00 0.00 40 1016.1
20260502181519 53 312 0.0 0.0 0.00 0.00 0.00 41 1016.1
20260502163014 50 326 0.0 0.0 0.00 0.01 0.00 46 1016.7
20260502161515 50 293 0.0 11.0 0.00 0.01 0.00 46 1016.9
20260502151507 48 64 0.0 7.0 0.00 0.01 0.00 52 1017.1
20260502130116 43 20 0.0 0.0 0.00 0.01 0.00 70 1016.9
20260502123120 41 54 0.0 0.0 0.00 0.01 0.00 74 1016.9
20260502121551 41 48 0.0 8.0 0.00 0.01 0.00 73 1016.8
20260502114518 39 39 0.0 0.0 0.00 0.01 0.00 82 1016.5
20260502113019 38 3 0.0 0.0 0.00 0.01 0.00 84 1016.3
20260502111549 38 3 0.0 0.0 0.00 0.01 0.00 85 1016.0
20260502110050 37 3 0.0 0.0 0.00 0.01 0.00 86 1016.3
20260502104516 37 3 0.0 0.0 0.00 0.01 0.00 85 1016.3
20260502103017 36 3 0.0 0.0 0.00 0.01 0.00 87 1016.3
20260502101512 36 3 0.0 0.0 0.00 0.01 0.00 86 1016.2
20260502091506 37 3 0.0 0.0 0.00 0.01 0.00 82 1016.2
20260502070025 40 23 0.0 0.0 0.00 0.01 0.00 82 1015.8
20260502064525 40 336 0.0 0.0 0.00 0.01 0.00 83 1016.0
20260502063018 41 336 0.0 0.0 0.00 0.01 0.00 83 1016.1
20260502061515 40 336 0.0 0.0 0.00 0.01 0.00 83 1016.3
20260502060015 41 336 0.0 0.0 0.00 0.01 0.00 81 1016.5
20260502054521 41 336 0.0 0.0 0.00 0.01 0.00 80 1016.5
20260502053042 42 336 0.0 0.0 0.00 0.01 0.00 79 1016.4
20260502051540 42 336 0.0 0.0 0.00 0.01 0.00 81 1016.4
20260502050038 42 336 0.0 0.0 0.00 0.01 0.00 79 1016.4
20260502044537 42 336 0.0 0.0 0.00 0.01 0.00 80 1016.4
20260502043036 42 336 0.0 0.0 0.00 0.01 0.00 82 1016.5
20260502041533 43 336 0.0 0.0 0.00 0.01 0.00 79 1016.5
20260502040029 43 336 0.0 0.0 0.00 0.01 0.00 78 1016.4
20260502034529 43 336 0.0 0.0 0.00 0.01 0.00 78 1016.5
20260502033034 43 336 0.0 0.0 0.00 0.01 0.00 76 1016.6
20260502031527 43 17 0.0 0.0 0.00 0.01 0.00 77 1016.4
20260502030056 44 17 0.0 0.0 0.00 0.01 0.00 74 1016.4
20260502024610 44 17 0.0 0.0 0.00 0.01 0.00 73 1016.4
20260502023052 45 17 0.0 0.0 0.00 0.01 0.00 73 1016.2
20260502021553 44 17 0.0 0.0 0.00 0.01 0.00 74 1016.1
20260502020051 43 17 0.0 0.0 0.00 0.01 0.00 80 1015.9
20260502014546 43 17 0.0 0.0 0.00 0.01 0.00 80 1015.6
20260502013040 44 17 0.0 0.0 0.00 0.01 0.00 78 1015.5
20260502011537 45 17 0.0 0.0 0.00 0.01 0.00 75 1015.4
20260502010047 46 17 0.0 0.0 0.00 0.01 0.00 70 1015.2
20260502004546 48 17 0.0 0.0 0.00 0.01 0.00 65 1014.8
20260502003023 49 39 0.0 1.0 0.00 0.01 0.00 64 1014.3
20260502001519 50 36 0.0 0.0 0.00 0.01 0.00 61 1013.9
20260502000015 51 59 0.0 0.0 0.00 0.01 0.00 58 1013.9
20260501234514 52 60 0.0 0.0 0.00 0.01 0.00 56 1014.3
20260501233008 52 321 0.0 10.0 0.00 0.01 0.00 50 1014.3
20260501231514 52 10 0.0 0.0 0.00 0.01 0.00 48 1014.0
20260501230004 53 11 0.0 11.0 0.00 0.01 0.00 52 1014.0
20260501224504 52 331 0.0 1.0 0.00 0.01 0.00 53 1014.0
20260501223032 52 30 0.0 0.0 0.00 0.01 0.00 55 1014.0
20260501221530 52 31 0.0 9.0 0.00 0.01 0.00 52 1014.1
20260501220032 51 42 3.0 11.0 0.00 0.01 0.00 54 1014.2
20260501214522 52 334 0.0 14.0 0.00 0.01 0.01 56 1014.1
20260501213030 52 345 0.0 13.0 0.00 0.01 0.01 56 1013.9
20260501211513 52 325 0.0 0.0 0.00 0.01 0.01 59 1014.0